1508414400.54,28551,16.38,73910.3,10.41,-28.09,-29.79,0,*44
1508414401.8,28552,16.38,73908.8,10.39,-28.43,-30.01,0,*41
1508414403.04,28553,16.38,73910.3,10.39,-28.63,-30.33,0,*43
1508414404.3,28554,16.38,73908.5,10.37,-28.25,-29.83,0,*4B
1508414405.58,28555,16.38,73914.0,10.37,-27.83,-29.51,0,*46
1508414406.86,28556,16.38,73916.8,10.37,-28.09,-29.73,0,*48
1508414408.09,28557,16.38,73912.3,10.37,-27.07,-28.97,0,*43
1508414409.37,28558,16.38,73914.0,10.37,-26.77,-28.79,0,*4A
1508414410.61,28559,16.38,73914.3,10.37,-28.53,-30.33,0,*44
1508414411.84,28560,16.38,73914.0,10.37,-28.69,-30.67,0,*46
1508414413.09,28561,16.38,73912.0,10.35,-27.99,-29.79,0,*42
1508414414.36,28562,16.38,73914.8,10.39,-26.77,-28.63,0,*46
1508414415.62,28563,16.38,73914.0,10.39,-25.81,-27.61,0,*40
1508414416.85,28564,16.38,73916.3,10.39,-25.75,-27.51,0,*4F
1508414418.13,28565,16.38,73916.5,10.41,-26.93,-28.91,0,*49
1508414419.35,28566,16.38,73912.0,10.45,-28.31,-30.11,0,*49
1508414420.6,28567,16.38,73916.5,10.41,-29.29,-31.33,0,*45
1508414421.87,28568,16.38,73914.3,10.41,-28.79,-30.67,0,*4E
1508414423.11,28569,16.38,73910.8,10.39,-29.35,-31.29,0,*42
1508414424.37,28570,16.38,73908.3,10.37,-30.51,-32.51,0,*42
1508414425.63,28571,16.38,73908.0,10.35,-30.27,-32.19,0,*4C
1508414426.88,28572,16.38,73908.0,10.35,-29.61,-31.61,0,*49
1508414428.11,28573,16.38,73904.8,10.33,-30.23,-32.07,0,*43
1508414429.39,28574,16.38,73904.5,10.31,-31.57,-33.73,0,*46
1508414430.68,28575,16.38,73904.5,10.27,-31.61,-33.43,0,*46
1508414431.88,28576,16.38,73904.3,10.25,-31.67,-33.67,0,*47
1508414433.1,28577,16.38,73900.3,10.25,-31.01,-33.09,0,*4E
1508414434.33,28578,16.38,73900.8,10.21,-31.73,-33.67,0,*48
1508414435.59,28579,16.38,73902.8,10.15,-31.33,-33.27,0,*4E
1508414436.85,28580,16.38,73900.8,10.15,-30.61,-32.51,0,*4E
1508414438.11,28581,16.38,73900.0,10.13,-31.51,-33.27,0,*4B
1508414439.38,28582,16.38,73906.8,10.11,-29.39,-31.05,0,*4F
1508414440.66,28583,16.38,73904.8,10.11,-29.13,-30.95,0,*4E
1508414441.9,28584,16.38,73904.8,10.13,-29.51,-31.17,0,*46
1508414443.1,28585,16.38,73906.3,10.13,-30.27,-32.01,0,*4A
1508414444.39,28586,16.38,73904.5,10.11,-29.29,-31.23,0,*4E
1508414445.66,28587,16.38,73906.5,10.11,-29.39,-31.17,0,*49
1508414446.92,28588,16.38,73906.0,10.11,-30.83,-32.63,0,*4F
1508414448.18,28589,16.38,73902.3,10.11,-30.67,-32.63,0,*44
1508414449.44,28590,16.38,73900.8,10.09,-31.73,-33.49,0,*48
1508414450.7,28591,16.38,73912.3,10.07,-29.79,-31.61,0,*4C
1508414451.9,28592,16.38,73906.5,10.05,-30.23,-32.13,0,*4C
1508414453.15,28593,16.38,73906.8,10.05,-30.27,-32.19,0,*43
1508414454.41,28594,16.38,73904.5,10.07,-29.67,-31.61,0,*46
1508414455.65,28595,16.38,73906.3,10.07,-31.45,-33.37,0,*4F
1508414456.89,28596,16.38,73904.3,10.03,-30.39,-32.29,0,*4C
1508414458.13,28597,16.38,73904.8,10.03,-30.11,-31.95,0,*43
1508414459.38,28598,16.38,73902.0,10.03,-30.95,-32.75,0,*4D
1508414460.64,28599,16.38,73910.8,10.01,-30.67,-32.45,0,*40
1508414461.89,28600,16.38,73906.5,10.01,-31.29,-33.27,0,*4D
1508414463.09,28601,16.38,73906.8,9.99,-31.17,-33.03,0,*7E
1508414464.3,28602,16.38,73914.8,9.99,-31.45,-33.37,0,*7D
1508414465.5,28603,16.38,73906.3,9.95,-31.01,-32.91,0,*7D
1508414466.75,28604,16.38,73904.5,9.93,-31.11,-33.03,0,*77
1508414468.04,28605,16.38,73904.5,9.93,-29.51,-31.51,0,*7E
1508414469.28,28606,16.38,73906.0,9.93,-30.89,-33.21,0,*75
1508414470.53,28607,16.38,73902.8,9.93,-31.67,-33.61,0,*71
1508414471.72,28608,16.38,73900.8,9.91,-32.23,-34.07,0,*78
1508414472.98,28609,16.38,73904.3,9.89,-31.45,-33.43,0,*74
1508414474.23,28610,16.38,73908.0,9.89,-31.01,-32.79,0,*74
1508414475.46,28611,16.38,73906.5,9.87,-30.11,-31.91,0,*7E
1508414476.68,28612,16.38,73902.3,9.87,-31.33,-33.49,0,*7B
1508414477.96,28613,16.38,73906.3,9.85,-31.23,-33.27,0,*71
1508414479.18,28614,16.38,73902.3,9.85,-31.05,-33.03,0,*74
1508414480.44,28615,16.38,73902.5,9.83,-31.11,-33.09,0,*7C
1508414481.67,28616,16.38,73902.5,9.83,-29.51,-31.29,0,*72
1508414482.9,28617,16.38,73906.0,9.85,-29.67,-31.79,0,*75
1508414484.15,28618,16.38,73904.8,9.85,-30.89,-33.03,0,*7D
1508414485.4,28619,16.38,73906.0,9.81,-30.61,-32.51,0,*78
1508414486.6,28620,16.38,73900.8,9.83,-31.29,-33.37,0,*7C
1508414487.86,28621,16.38,73906.0,9.83,-31.23,-33.27,0,*76
1508414489.11,28622,16.38,73910.3,9.81,-31.01,-32.97,0,*7D
1508414490.35,28623,16.38,73902.8,9.81,-30.95,-32.57,0,*7C
1508414491.59,28624,16.38,73904.8,9.79,-28.85,-30.77,0,*74
1508414492.83,28625,16.38,73904.8,9.81,-30.51,-32.57,0,*72
1508414494.08,28626,16.38,73906.3,9.83,-30.01,-31.85,0,*7A
1508414495.32,28627,16.38,73908.3,9.81,-30.39,-32.23,0,*7D
1508414496.59,28628,16.38,73904.3,9.81,-30.05,-31.85,0,*72
1508414497.87,28629,16.38,73906.5,9.81,-30.77,-32.75,0,*7A
1508414499.09,28630,16.38,73904.5,9.79,-29.79,-31.91,0,*7A
1508414500.29,28631,16.38,73902.0,9.79,-30.45,-32.35,0,*71
1508414501.54,28632,16.38,73904.0,9.79,-30.77,-32.75,0,*77
1508414502.77,28633,16.38,73906.3,9.79,-31.85,-33.67,0,*78
1508414504.05,28634,16.38,73906.5,9.77,-30.89,-32.85,0,*71
1508414505.24,28635,16.38,73904.0,9.79,-30.45,-32.39,0,*79
1508414506.49,28636,16.38,73906.0,9.77,-31.33,-32.85,0,*73
1508414507.77,28637,16.38,73904.5,9.73,-31.61,-33.73,0,*79
1508414509.05,28638,16.38,73906.5,9.73,-31.95,-33.89,0,*78
1508414510.31,28639,16.38,73906.3,9.73,-30.61,-32.51,0,*77
1508414511.53,28640,16.38,73906.0,9.71,-31.39,-33.37,0,*76
1508414512.78,28641,16.38,73904.3,9.71,-30.89,-32.79,0,*76
1508414514.0,28642,16.38,73904.8,9.71,-30.17,-32.01,0,*7D
1508414515.23,28643,16.38,73902.8,9.71,-29.45,-31.39,0,*7B
1508414516.47,28644,16.38,73902.5,9.71,-30.55,-32.63,0,*79
1508414517.71,28645,16.38,73902.8,9.69,-31.67,-33.77,0,*75
1508414518.96,28646,16.38,73904.0,9.69,-31.85,-33.95,0,*76
1508414520.21,28647,16.38,73904.5,9.67,-30.77,-32.75,0,*7A
1508414521.42,28648,16.38,73900.3,9.67,-30.67,-32.39,0,*7C
1508414522.65,28649,16.38,73902.8,9.67,-30.27,-32.07,0,*74
1508414523.85,28650,16.38,73900.3,9.67,-30.27,-32.23,0,*7A
1508414525.08,28651,16.38,73898.5,9.69,-30.67,-32.51,0,*74
1508414526.28,28652,16.38,73904.0,9.67,-30.27,-32.23,0,*78
1508414527.5,28653,16.38,73900.0,9.67,-30.23,-32.19,0,*74
1508414528.73,28654,16.38,73902.8,9.67,-31.33,-33.31,0,*78
1508414529.96,28655,16.38,73900.5,9.67,-32.01,-33.77,0,*79
1508414531.21,28656,16.38,73904.5,9.65,-30.89,-32.91,0,*73
1508414532.46,28657,16.38,73900.0,9.65,-31.17,-32.97,0,*72
1508414533.71,28658,16.38,73902.0,9.63,-30.89,-32.85,0,*7E
1508414534.9,28659,16.38,73900.8,9.63,-30.23,-32.13,0,*70
1508414536.13,28660,16.38,73900.3,9.65,-29.45,-31.33,0,*75
1508414537.37,28661,16.38,73902.8,9.65,-28.97,-30.83,0,*70
1508414538.63,28662,16.38,73904.3,9.65,-27.61,-29.57,0,*74
1508414539.9,28663,16.38,73910.0,9.65,-27.45,-29.39,0,*7B
1508414541.12,28664,16.44,73908.8,9.69,-28.15,-30.23,0,*79
1508414542.39,28665,16.38,73906.0,9.69,-29.73,-31.85,0,*74
1508414543.67,28666,16.38,73906.3,9.69,-30.77,-32.75,0,*77
1508414544.93,28667,16.38,73902.0,9.67,-31.61,-33.43,0,*7A
1508414546.13,28668,16.38,73900.5,9.67,-31.67,-33.67,0,*75
1508414547.35,28669,16.38,73902.5,9.67,-30.55,-32.35,0,*72
1508414548.62,28670,16.38,73902.8,9.65,-30.89,-32.79,0,*71
1508414549.88,28671,16.44,73898.8,9.65,-30.83,-32.63,0,*71
1508414551.13,28672,16.38,73894.3,9.63,-31.11,-32.85,0,*76
1508414552.35,28673,16.38,73898.8,9.63,-31.39,-33.37,0,*75
1508414553.57,28674,16.38,73902.5,9.63,-32.85,-34.89,0,*74
1508414554.79,28675,16.38,73902.3,9.59,-33.15,-35.07,0,*73
1508414556.02,28676,16.38,73898.8,9.59,-32.75,-34.89,0,*70
1508414557.25,28677,16.44,73902.3,9.55,-33.37,-35.35,0,*7C
1508414558.46,28678,16.38,73898.3,9.55,-32.91,-34.83,0,*72
1508414559.7,28679,16.38,73896.3,9.49,-32.57,-34.35,0,*79
1508414560.95,28680,16.38,73892.0,9.47,-32.19,-34.01,0,*7C
1508414562.15,28681,16.38,73896.0,9.47,-32.51,-34.59,0,*7C
1508414563.37,28682,16.38,73896.3,9.45,-33.15,-34.77,0,*70
1508414564.63,28683,16.38,73890.5,9.43,-31.73,-33.31,0,*70
1508414565.91,28684,16.38,73890.5,9.45,-31.39,-33.27,0,*78
1508414567.16,28685,16.38,73896.5,9.41,-31.29,-33.31,0,*7B
1508414568.44,28686,16.38,73904.0,9.41,-30.73,-32.79,0,*7B
1508414569.71,28687,16.38,73896.8,9.41,-32.45,-34.31,0,*77
1508414570.97,28688,16.38,73900.5,9.41,-32.07,-34.13,0,*7E
1508414572.22,28689,16.44,73900.0,9.39,-32.29,-34.35,0,*78
1508414573.49,28690,16.38,73900.5,9.39,-31.51,-33.77,0,*7D
1508414574.74,28691,16.38,73902.5,9.37,-31.85,-34.01,0,*7D
1508414576.0,28692,16.38,73902.5,9.35,-30.83,-32.75,0,*7E
1508414577.28,28693,16.38,73904.5,9.35,-31.23,-33.27,0,*72
1508414578.52,28694,16.38,73904.0,9.35,-31.67,-33.73,0,*74
1508414579.76,28695,16.38,73904.8,9.35,-30.51,-32.57,0,*76
1508414581.0,28696,16.38,73904.8,9.35,-31.33,-33.31,0,*71
1508414582.26,28697,16.38,73906.8,9.33,-31.39,-33.43,0,*79
1508414583.48,28698,16.44,73908.0,9.33,-31.33,-33.31,0,*79
1508414584.73,28699,16.38,73904.8,9.31,-31.29,-33.31,0,*71
1508414586.0,28700,16.38,73908.0,9.31,-32.85,-34.19,0,*78
1508414587.21,28701,16.38,73904.3,9.27,-30.23,-32.13,0,*7C
1508414588.49,28702,16.38,73906.0,9.27,-29.73,-31.61,0,*74
1508414589.76,28703,16.38,73906.0,9.31,-28.59,-30.51,0,*79
1508414590.96,28704,16.38,73910.5,9.33,-29.79,-31.67,0,*7B
1508414592.16,28705,16.38,73910.8,9.33,-30.27,-32.23,0,*7A
1508414593.41,28706,16.38,73908.3,9.33,-30.51,-32.45,0,*78
1508414594.63,28707,16.38,73908.5,9.33,-29.79,-31.73,0,*7D
1508414595.85,28708,16.44,73912.3,9.33,-29.07,-30.95,0,*72
1508414597.1,28709,16.38,73910.0,9.35,-29.23,-31.11,0,*7E
1508414598.34,28710,16.38,73910.3,9.37,-28.85,-30.77,0,*78
1508414599.53,28711,16.38,73910.0,9.37,-29.83,-31.67,0,*7E
1508414600.74,28712,16.44,73910.5,9.37,-29.57,-31.29,0,*7E
1508414601.97,28713,16.44,73910.0,9.37,-28.69,-30.61,0,*7E
1508414603.19,28714,16.44,73912.0,9.37,-28.15,-29.89,0,*7C
1508414604.41,28715,16.44,73912.3,9.39,-29.07,-31.05,0,*7C
1508414605.69,28716,16.44,73910.8,9.39,-29.01,-30.89,0,*7C
1508414606.91,28717,16.44,73910.8,9.37,-32.51,-34.01,0,*78
1508414608.11,28718,16.44,73908.5,9.37,-31.17,-33.03,0,*73
1508414609.33,28719,16.38,73900.8,9.37,-30.95,-32.69,0,*74
1508414610.58,28720,16.38,73902.5,9.35,-30.61,-32.39,0,*72
1508414611.86,28721,16.44,73910.3,9.35,-30.17,-32.07,0,*7F
1508414613.1,28722,16.38,73906.8,9.35,-29.79,-31.73,0,*7C
1508414614.34,28723,16.44,73916.3,9.35,-29.79,-31.73,0,*7D
1508414615.6,28724,16.44,73910.5,9.35,-29.45,-31.23,0,*70
1508414616.8,28725,16.38,73908.3,9.37,-28.53,-30.45,0,*74
1508414618.02,28726,16.38,73914.0,9.37,-28.47,-30.45,0,*72
1508414619.28,28727,16.44,73912.8,9.37,-28.91,-30.77,0,*79
1508414620.52,28728,16.44,73908.8,9.39,-30.05,-32.01,0,*7F
1508414621.77,28729,16.38,73908.5,9.37,-30.89,-32.85,0,*78
1508414622.99,28730,16.44,73912.3,9.37,-30.95,-33.03,0,*72
1508414624.23,28731,16.44,73912.3,9.37,-29.73,-31.51,0,*76
1508414625.46,28732,16.38,73910.5,9.37,-29.67,-31.51,0,*70
1508414626.68,28733,16.44,73912.3,9.37,-29.89,-31.79,0,*7B
1508414627.9,28734,16.38,73906.3,9.37,-30.27,-32.29,0,*76
1508414629.12,28735,16.44,73908.0,9.35,-31.33,-33.15,0,*7F
1508414630.37,28736,16.44,73908.3,9.35,-29.95,-31.85,0,*72
1508414631.61,28737,16.44,73912.8,9.35,-29.73,-31.67,0,*77
1508414632.83,28738,16.38,73906.0,9.37,-28.69,-30.55,0,*70
1508414634.08,28739,16.44,73904.8,9.39,-28.53,-30.55,0,*76
1508414635.27,28740,16.44,73904.0,9.37,-30.11,-32.01,0,*7A
1508414636.52,28741,16.44,73900.0,9.37,-31.51,-33.43,0,*79
1508414637.76,28742,16.38,73900.0,9.37,-30.01,-31.85,0,*76
1508414639.01,28743,16.44,73910.5,9.35,-30.17,-32.01,0,*7D
1508414640.21,28744,16.44,73912.5,9.37,-28.53,-30.27,0,*77
1508414641.41,28745,16.38,73906.8,9.37,-29.83,-31.33,0,*7E
1508414642.62,28746,16.44,73910.8,9.39,-28.31,-30.11,0,*7A
1508414643.82,28747,16.44,73910.5,9.37,-27.29,-29.23,0,*7A
1508414645.07,28748,16.44,73910.8,9.41,-26.55,-28.31,0,*7C
1508414646.32,28749,16.44,73910.3,9.43,-27.39,-29.39,0,*7D
1508414647.56,28750,16.38,73906.5,9.43,-27.77,-29.89,0,*74
1508414648.81,28751,16.44,73910.3,9.47,-28.79,-30.61,0,*7E
1508414650.09,28752,16.44,73910.8,9.45,-28.75,-30.51,0,*70
1508414651.34,28753,16.44,73914.0,9.45,-28.25,-30.11,0,*70
1508414652.53,28754,16.44,73912.8,9.47,-28.15,-29.95,0,*72
1508414653.76,28755,16.38,73908.5,9.47,-28.53,-30.39,0,*7F
1508414655.01,28756,16.44,73908.8,9.49,-28.69,-30.55,0,*71
1508414656.23,28757,16.44,73912.5,9.49,-28.31,-30.11,0,*7D
1508414657.45,28758,16.38,73910.5,9.55,-28.25,-30.11,0,*7A
1508414658.7,28759,16.44,73914.5,9.53,-27.67,-29.51,0,*78
1508414659.95,28760,16.44,73912.5,9.53,-28.47,-30.23,0,*72
1508414661.14,28761,16.44,73910.0,9.55,-27.77,-29.61,0,*77
1508414662.39,28762,16.44,73912.0,9.57,-28.09,-29.95,0,*7B
1508414663.67,28763,16.44,73914.8,9.57,-27.61,-29.39,0,*7D
1508414664.89,28764,16.44,73914.5,9.59,-28.69,-30.55,0,*71
1508414666.11,28765,16.44,73918.5,9.59,-27.99,-29.79,0,*76
1508414667.37,28766,16.44,73914.3,9.61,-27.99,-29.67,0,*71
1508414668.62,28767,16.44,73916.3,9.61,-28.15,-30.01,0,*73
1508414669.9,28768,16.44,73916.0,9.61,-29.01,-30.89,0,*78
1508414671.14,28769,16.44,73910.5,9.61,-29.45,-31.45,0,*78
1508414672.41,28770,16.38,73910.3,9.61,-29.73,-31.57,0,*76
1508414673.65,28771,16.38,73910.5,9.61,-28.85,-30.67,0,*7D
1508414674.89,28772,16.44,73912.0,9.61,-29.67,-31.45,0,*72
1508414676.15,28773,16.44,73914.5,9.61,-29.35,-31.05,0,*70
1508414677.41,28774,16.44,73914.8,9.61,-28.97,-30.73,0,*7E
1508414678.64,28775,16.44,73912.0,9.61,-28.53,-30.23,0,*72
1508414679.88,28776,16.44,73908.5,9.61,-28.47,-30.23,0,*74
1508414681.16,28777,16.44,73910.5,9.61,-29.29,-30.95,0,*71
1508414682.41,28778,16.44,73908.5,9.61,-29.13,-31.05,0,*7F
1508414683.61,28779,16.44,73910.8,9.59,-28.53,-30.23,0,*75
1508414684.87,28780,16.44,73910.5,9.61,-27.77,-29.51,0,*7C
1508414686.09,28781,16.44,73908.8,9.63,-28.47,-30.33,0,*7F
1508414687.31,28782,16.44,73910.3,9.63,-27.99,-29.83,0,*73
1508414688.58,28783,16.44,73910.3,9.65,-27.45,-29.29,0,*75
1508414689.85,28784,16.44,73910.5,9.65,-27.39,-29.13,0,*70
1508414691.08,28785,16.44,73908.5,9.67,-26.81,-28.69,0,*7D
1508414692.35,28786,16.44,73910.5,9.69,-26.55,-28.21,0,*75
1508414693.58,28787,16.44,73910.0,9.69,-26.65,-28.37,0,*70
1508414694.81,28788,16.44,73910.8,9.73,-26.61,-28.31,0,*76
1508414696.07,28789,16.44,73908.8,9.73,-26.07,-27.83,0,*71
1508414697.31,28790,16.44,73912.5,9.77,-26.17,-27.93,0,*7D
1508414698.56,28791,16.44,73906.8,9.81,-27.13,-28.91,0,*7D
1508414699.78,28792,16.44,73910.0,9.81,-26.87,-28.85,0,*77
1508414701.04,28793,16.44,73912.8,9.81,-28.21,-30.23,0,*71
1508414702.29,28794,16.44,73912.5,9.81,-28.37,-30.39,0,*7A
1508414703.54,28795,16.44,73908.5,9.81,-29.17,-31.01,0,*72
1508414704.79,28796,16.44,73908.8,9.81,-28.37,-30.51,0,*76
1508414706.01,28797,16.44,73910.0,9.81,-27.89,-29.79,0,*7F
1508414707.26,28798,16.44,73908.8,9.81,-27.55,-29.35,0,*79
1508414708.51,28799,16.44,73908.3,9.83,-27.45,-29.17,0,*7B
1508414709.74,28800,16.44,73908.0,9.83,-26.97,-28.69,0,*72
1508414711.0,28801,16.44,73906.5,9.83,-26.77,-28.63,0,*77
1508414712.25,28802,16.44,73908.8,9.85,-26.77,-28.69,0,*78
1508414713.5,28803,16.44,73906.8,9.89,-26.87,-28.91,0,*7D
1508414714.69,28804,16.44,73910.3,9.87,-27.77,-29.79,0,*7D
1508414715.89,28805,16.44,73906.5,9.87,-28.31,-30.27,0,*72
1508414717.18,28806,16.44,73910.5,9.89,-28.59,-30.61,0,*73
1508414718.43,28807,16.44,73906.8,9.89,-27.51,-29.39,0,*70
1508414719.68,28808,16.44,73906.8,9.89,-28.21,-30.11,0,*75
1508414720.93,28809,16.44,73904.5,9.89,-28.43,-30.33,0,*70
1508414722.16,28810,16.44,73910.3,9.87,-28.09,-29.95,0,*7C
1508414723.39,28811,16.44,73908.3,9.89,-27.67,-29.61,0,*7F
1508414724.62,28812,16.44,73906.0,9.91,-29.39,-31.33,0,*7E
1508414725.91,28813,16.44,73906.0,9.89,-28.91,-30.61,0,*73
1508414727.19,28814,16.44,73908.0,9.89,-28.21,-30.05,0,*7D
1508414728.44,28815,16.44,73906.3,9.89,-27.83,-29.57,0,*74
1508414729.71,28816,16.44,73910.8,9.93,-27.45,-29.35,0,*72
1508414730.93,28817,16.44,73906.3,9.89,-27.55,-29.23,0,*7E
1508414732.22,28818,16.44,73904.5,9.93,-27.61,-29.51,0,*78
1508414733.49,28819,16.44,73910.3,9.93,-27.83,-29.51,0,*75
1508414734.73,28820,16.44,73904.8,9.93,-27.51,-29.17,0,*72
1508414735.96,28821,16.44,73906.0,9.95,-27.77,-29.51,0,*73
1508414737.23,28822,16.44,73906.3,9.93,-27.45,-29.13,0,*71
1508414738.49,28823,16.44,73900.3,9.95,-26.97,-28.91,0,*73
1508414739.71,28824,16.44,73904.3,9.99,-26.61,-28.43,0,*7E
1508414740.94,28825,16.44,73900.8,9.99,-26.87,-28.59,0,*7C
1508414742.19,28826,16.44,73902.8,10.01,-26.93,-28.69,0,*40
1508414743.43,28827,16.44,73904.3,10.03,-26.97,-28.85,0,*45
1508414744.63,28828,16.44,73906.3,10.03,-27.13,-28.85,0,*47
1508414745.83,28829,16.44,73904.3,10.03,-26.61,-28.53,0,*49
1508414747.06,28830,16.44,73910.3,10.03,-26.65,-28.47,0,*40
1508414748.27,28831,16.44,73908.3,10.05,-27.03,-29.07,0,*43
1508414749.51,28832,16.44,73912.5,10.05,-28.53,-30.55,0,*45
1508414750.73,28833,16.44,73908.5,10.05,-30.55,-32.57,0,*4B
1508414751.95,28834,16.44,73906.8,10.03,-30.23,-32.29,0,*42
1508414753.19,28835,16.44,73908.5,10.03,-29.35,-31.45,0,*45
1508414754.44,28836,16.44,73902.3,10.03,-30.95,-33.09,0,*4E
1508414755.7,28837,16.44,73902.5,10.01,-31.17,-33.31,0,*4D
1508414756.93,28838,16.44,73898.0,9.95,-31.79,-33.77,0,*7D
1508414758.16,28839,16.44,73894.3,9.91,-30.27,-32.19,0,*7B
1508414759.36,28840,16.44,73902.8,9.91,-28.53,-30.33,0,*75
1508414760.57,28841,16.44,73900.0,9.91,-28.53,-30.33,0,*74
1508414761.85,28842,16.44,73906.0,9.93,-30.01,-31.61,0,*7D
1508414763.12,28843,16.44,73904.5,9.93,-28.79,-30.55,0,*7C
1508414764.35,28844,16.44,73900.5,9.91,-28.43,-30.27,0,*75
1508414765.57,28845,16.44,73910.5,9.91,-28.43,-30.45,0,*70
1508414766.8,28846,16.44,73908.5,9.91,-29.57,-31.57,0,*75
1508414768.0,28847,16.44,73910.0,9.91,-30.45,-32.51,0,*7A
1508414769.2,28848,16.44,73904.3,9.91,-30.11,-32.01,0,*71
1508414770.48,28849,16.44,73906.5,9.89,-29.89,-31.91,0,*7A
1508414771.73,28850,16.44,73904.5,9.89,-30.67,-32.63,0,*74
1508414772.99,28851,16.44,73910.3,9.85,-31.29,-33.27,0,*73
1508414774.27,28852,16.44,73914.3,9.85,-29.51,-31.61,0,*76
1508414775.54,28853,16.44,73908.8,9.85,-30.05,-32.19,0,*72
1508414776.81,28854,16.44,73912.0,9.85,-30.05,-32.29,0,*76
1508414778.03,28855,16.44,73912.5,9.83,-29.73,-31.79,0,*7E
1508414779.29,28856,16.44,73910.0,9.83,-31.61,-33.73,0,*7F
1508414780.52,28857,16.44,73904.8,9.83,-31.45,-33.73,0,*78
1508414781.76,28858,16.44,73906.3,9.77,-31.91,-34.07,0,*71
1508414783.01,28859,16.44,73910.5,9.73,-31.95,-33.95,0,*7C
1508414784.26,28860,16.44,73910.5,9.73,-30.33,-32.45,0,*77
1508414785.49,28861,16.44,73902.0,9.73,-32.91,-35.01,0,*7B
1508414786.71,28862,16.44,73900.3,9.67,-32.97,-35.13,0,*78
1508414787.96,28863,16.44,73906.5,9.67,-32.85,-35.07,0,*7F
1508414789.17,28864,16.44,73908.0,9.63,-32.35,-34.31,0,*73
1508414790.42,28865,16.44,73912.0,9.63,-31.39,-33.09,0,*71
1508414791.62,28866,16.44,73898.3,9.63,-32.69,-34.47,0,*79
1508414792.83,28867,16.44,73904.5,9.59,-35.47,-37.15,0,*7E
1508414794.08,28868,16.44,73908.3,9.57,-34.19,-35.77,0,*73
1508414795.31,28869,16.44,73906.3,9.55,-33.73,-35.59,0,*77
1508414796.51,28870,16.44,73906.3,9.47,-32.69,-34.89,0,*7A
1508414797.74,28871,16.44,73902.3,9.49,-32.01,-34.13,0,*78
1508414798.96,28872,16.44,73900.3,9.47,-32.01,-34.31,0,*75
1508414800.24,28873,16.44,73904.5,9.45,-32.75,-34.95,0,*7B
1508414801.49,28874,16.44,73900.3,9.41,-32.97,-35.17,0,*7F
1508414802.73,28875,16.44,73900.0,9.41,-33.15,-35.23,0,*72
1508414803.95,28876,16.44,73904.5,9.37,-33.03,-35.23,0,*77
1508414805.15,28877,16.44,73900.8,9.37,-32.69,-34.77,0,*7B
1508414806.4,28878,16.44,73906.5,9.35,-34.53,-36.07,0,*7C
1508414807.64,28879,16.44,73896.0,9.33,-33.83,-35.83,0,*7E
1508414808.88,28880,16.5,73910.5,9.27,-34.47,-36.55,0,*7A
1508414810.11,28881,16.44,73910.0,9.25,-33.67,-35.95,0,*73
1508414811.34,28882,16.44,73906.8,9.25,-33.67,-35.65,0,*7F
1508414812.55,28883,16.44,73904.3,9.21,-33.67,-35.89,0,*78
1508414813.81,28884,16.44,73906.3,9.19,-33.77,-35.77,0,*74
1508414815.05,28885,16.44,73910.8,9.19,-34.13,-35.89,0,*71
1508414816.3,28886,16.44,73908.3,9.17,-33.27,-35.23,0,*7C
1508414817.56,28887,16.44,73912.0,9.15,-32.45,-34.35,0,*7C
1508414818.82,28888,16.44,73908.3,9.13,-30.95,-32.75,0,*78
1508414820.07,28889,16.44,73908.3,9.15,-30.55,-32.51,0,*75
1508414821.32,28890,16.44,73912.8,9.15,-31.23,-33.03,0,*7B
1508414822.6,28891,16.44,73914.3,9.15,-30.95,-32.75,0,*76
1508414823.85,28892,16.44,73918.5,9.15,-29.57,-31.51,0,*76
1508414825.11,28893,16.44,73916.8,9.15,-30.73,-32.51,0,*7A
1508414826.36,28894,16.44,73918.5,9.17,-30.77,-32.85,0,*72
1508414827.56,28895,16.44,73914.8,9.17,-30.45,-32.35,0,*79
1508414828.77,28896,16.44,73916.8,9.17,-29.57,-31.45,0,*75
1508414830.06,28897,16.44,73916.5,9.19,-29.51,-31.23,0,*7C
1508414831.29,28898,16.44,73912.5,9.21,-28.59,-30.33,0,*71
1508414832.53,28899,16.44,73906.3,9.21,-29.39,-31.17,0,*70
1508414833.8,28900,16.44,73912.3,9.23,-28.91,-30.83,0,*7C
1508414835.05,28901,16.44,73910.8,9.25,-28.63,-30.39,0,*77
1508414836.28,28902,16.44,73912.3,9.25,-29.35,-31.29,0,*76
1508414837.51,28903,16.44,73908.5,9.25,-29.67,-31.61,0,*7C
1508414838.75,28904,16.44,73912.8,9.27,-29.57,-31.45,0,*7C
1508414839.97,28905,16.44,73910.3,9.27,-29.07,-31.05,0,*7C
1508414841.23,28906,16.44,73914.0,9.27,-28.53,-30.39,0,*71
1508414842.49,28907,16.44,73910.5,9.31,-28.47,-30.39,0,*72
1508414843.72,28908,16.44,73910.3,9.33,-28.05,-29.95,0,*77
1508414844.95,28909,16.44,73910.0,9.35,-28.85,-30.83,0,*77
1508414846.18,28910,16.44,73908.8,9.35,-30.27,-32.23,0,*76
1508414847.4,28911,16.44,73914.5,9.33,-29.45,-31.57,0,*7D
1508414848.6,28912,16.44,73914.8,9.33,-29.61,-31.67,0,*7B
1508414849.88,28913,16.44,73914.0,9.35,-29.39,-31.39,0,*7A
1508414851.11,28914,16.44,73910.0,9.33,-28.25,-30.11,0,*7C
1508414852.36,28915,16.5,73916.3,9.35,-29.07,-31.11,0,*7B
1508414853.56,28916,16.44,73914.0,9.37,-28.37,-30.23,0,*78
1508414854.84,28917,16.44,73910.8,9.39,-27.61,-29.51,0,*76
1508414856.11,28918,16.44,73910.0,9.39,-27.61,-29.39,0,*77
1508414857.37,28919,16.44,73910.5,9.39,-28.85,-30.77,0,*71
1508414858.58,28920,16.44,73908.5,9.43,-28.53,-30.33,0,*7D
1508414859.8,28921,16.44,73908.0,9.43,-29.79,-31.57,0,*76
1508414861.06,28922,16.44,73904.5,9.45,-28.75,-30.67,0,*7C
1508414862.35,28923,16.44,73906.8,9.41,-29.01,-30.89,0,*7B
1508414863.58,28924,16.44,73904.8,9.41,-29.95,-31.79,0,*7F
1508414864.83,28925,16.44,73908.5,9.41,-29.67,-31.57,0,*7F
1508414866.06,28926,16.44,73910.0,9.41,-29.95,-31.79,0,*7D
1508414867.3,28927,16.44,73912.3,9.41,-28.97,-30.67,0,*71
1508414868.58,28928,16.44,73910.5,9.41,-29.29,-31.11,0,*7A
1508414869.78,28929,16.44,73908.0,9.43,-30.11,-32.01,0,*78
1508414871.03,28930,16.44,73912.0,9.41,-29.61,-31.39,0,*75
1508414872.29,28931,16.44,73910.8,9.43,-28.43,-30.17,0,*7A
1508414873.53,28932,16.44,73910.0,9.45,-27.51,-29.29,0,*76
1508414874.82,28933,16.44,73916.0,9.45,-28.05,-29.89,0,*73
1508414876.11,28934,16.44,73912.5,9.45,-28.75,-30.77,0,*7A
1508414877.33,28935,16.44,73912.5,9.45,-30.45,-32.39,0,*79
1508414878.6,28936,16.44,73912.3,9.45,-31.39,-33.31,0,*79
1508414879.84,28937,16.44,73910.0,9.43,-31.45,-33.31,0,*75
1508414881.11,28938,16.44,73906.3,9.41,-30.51,-32.45,0,*7E
1508414882.37,28939,16.44,73904.5,9.41,-31.11,-33.03,0,*79
1508414883.63,28940,16.44,73904.5,9.41,-31.45,-33.31,0,*77
1508414884.85,28941,16.44,73902.3,9.39,-31.17,-33.03,0,*7F
1508414886.06,28942,16.44,73904.5,9.37,-30.01,-31.79,0,*7B
1508414887.28,28943,16.44,73908.3,9.37,-30.73,-32.57,0,*70
1508414888.53,28944,16.44,73910.8,9.37,-30.77,-32.75,0,*73
1508414889.78,28945,16.44,73904.5,9.35,-29.95,-31.91,0,*7D
1508414891.02,28946,16.5,73914.8,9.35,-30.51,-32.35,0,*73
1508414892.24,28947,16.44,73908.5,9.33,-32.35,-34.01,0,*75
1508414893.47,28948,16.44,73910.3,9.33,-31.11,-32.91,0,*70
1508414894.69,28949,16.44,73908.8,9.33,-29.95,-31.57,0,*7D
1508414895.97,28950,16.44,73910.3,9.35,-29.13,-30.95,0,*72
1508414897.24,28951,16.44,73914.0,9.35,-28.75,-30.61,0,*79
1508414898.49,28952,16.5,73908.8,9.35,-28.59,-30.45,0,*72
1508414899.75,28953,16.44,73906.0,9.35,-28.97,-30.77,0,*70
1508414900.97,28954,16.44,73908.8,9.37,-28.47,-30.27,0,*7D
1508414902.22,28955,16.44,73910.5,9.39,-28.69,-30.61,0,*7C
1508414903.5,28956,16.44,73908.0,9.39,-28.79,-30.73,0,*7D